Weather History for Molokai, HI

Change the Weather History Date:

Sunday, January 6, 2013

  Actual Average Record
Temperature  
Mean Temperature 76 °F -  
Max Temperature 82 °F 77 °F 83 °F (1981)
Min Temperature 71 °F 63 °F 55 °F (1993)
Cooling Degree Days 12    
Growing Degree Days 26 (Base 50)    
Moisture  
Dew Point 61 °F    
Average Humidity 62    
Maximum Humidity 81    
Minimum Humidity 45    
Precipitation  
Precipitation 0.00 in - - ()
Sea Level Pressure  
Sea Level Pressure 30.08 in    
Wind  
Wind Speed 10 mph (NNE)    
Max Wind Speed 16 mph    
Max Gust Speed 29 mph    
Visibility 10 miles    
Events      
Averages and records for this station are not official NWS values.
T = Trace of Precipitation, MM = Missing Value Source: NWS Daily Summary

Daily Weather History Graph

Daily Weather History Graph

Search for Another Location

Airport:

Trip Planner

Search our weather history database for the weather conditions in past years. The results will help you decide how hot, cold, wet, or windy it might be!

Date:

Astronomy

Jan. 06, 2013 Rise Set
Actual Time 7:07 AM HST 6:01 PM HST
Civil Twilight 6:43 AM HST 6:25 PM HST
Nautical Twilight 6:15 AM HST 6:53 PM HST
Astronomical Twilight 5:48 AM HST 7:20 PM HST
Moon 1:49 AM HST (1/6) 1:25 PM HST (1/6)
Length of Visible Light 11h 42m
Length of Day
10h 54m
Waning Crescent, 31% of the Moon is Illuminated
Jan 6
Waning Crescent
Jan 11
New
Jan 18
First Quarter
Jan 26
Full
Feb 3
Last Quarter

Hourly Weather History & Observations

Time (HST) Temp. Heat Index Dew Point Humidity Pressure Visibility Wind Dir Wind Speed Gust Speed Precip Events Conditions
12:54 AM 71.1 °F - 57.9 °F 63% 30.13 in 10.0 mi NNE 5.8 mph - N/A   Clear
1:54 AM 72.0 °F - 57.9 °F 61% 30.11 in 10.0 mi NE 9.2 mph 19.6 mph N/A   Clear
2:54 AM 73.0 °F - 55.9 °F 55% 30.09 in 10.0 mi NE 9.2 mph 17.3 mph N/A   Clear
3:54 AM 73.0 °F - 57.0 °F 57% 30.08 in 10.0 mi NE 11.5 mph - N/A   Clear
4:54 AM 72.0 °F - 59.0 °F 64% 30.10 in 10.0 mi North 12.7 mph 18.4 mph N/A   Clear
5:54 AM 72.0 °F - 60.1 °F 66% 30.10 in 10.0 mi NE 8.1 mph - N/A   Clear
6:54 AM 71.1 °F - 61.0 °F 70% 30.11 in 10.0 mi North 10.4 mph - N/A   Partly Cloudy
7:54 AM 73.0 °F - 62.1 °F 68% 30.13 in 10.0 mi NNE 10.4 mph 17.3 mph N/A   Scattered Clouds
8:54 AM 75.0 °F - 61.0 °F 62% 30.14 in 10.0 mi NE 8.1 mph 18.4 mph N/A   Clear
9:54 AM 78.1 °F - 62.1 °F 58% 30.13 in 10.0 mi North 11.5 mph 19.6 mph N/A   Partly Cloudy
10:54 AM 80.1 °F 80.9 °F 60.1 °F 50% 30.10 in 10.0 mi NNE 10.4 mph 21.9 mph N/A   Partly Cloudy
11:54 AM 82.0 °F 82.1 °F 59.0 °F 45% 30.08 in 10.0 mi NNE 10.4 mph 19.6 mph N/A   Clear
12:54 PM 80.1 °F 81.2 °F 62.1 °F 54% 30.06 in 10.0 mi NNE 13.8 mph 28.8 mph N/A   Clear
1:54 PM 80.1 °F 81.2 °F 62.1 °F 54% 30.02 in 10.0 mi NNE 15.0 mph 27.6 mph N/A   Clear
2:54 PM 80.1 °F 81.2 °F 62.1 °F 54% 30.00 in 10.0 mi NNE 16.1 mph 25.3 mph N/A   Clear
3:54 PM 79.0 °F - 61.0 °F 54% 29.99 in 10.0 mi NE 15.0 mph 27.6 mph N/A   Clear
4:54 PM 78.1 °F - 60.1 °F 54% 30.01 in 10.0 mi NNE 9.2 mph 19.6 mph N/A   Clear
5:54 PM 75.0 °F - 61.0 °F 62% 30.03 in 10.0 mi NNE 6.9 mph - N/A   Clear
6:54 PM 73.0 °F - 61.0 °F 66% 30.03 in 10.0 mi NNE 5.8 mph - N/A   Clear
7:54 PM 73.0 °F - 61.0 °F 66% 30.05 in 10.0 mi NE 9.2 mph 18.4 mph N/A   Clear
8:54 PM 72.0 °F - 62.1 °F 71% 30.08 in 10.0 mi NE 8.1 mph - N/A   Partly Cloudy
9:54 PM 72.0 °F - 62.1 °F 71% 30.09 in 10.0 mi NE 12.7 mph 20.7 mph N/A   Clear
10:54 PM 72.0 °F - 63.0 °F 73% 30.08 in 10.0 mi NE 11.5 mph - N/A   Partly Cloudy
11:54 PM 71.1 °F - 64.9 °F 81% 30.06 in 10.0 mi NE 11.5 mph 21.9 mph N/A   Scattered Clouds